When you browse on this site, cookies collect data to enhance your experience and personalize the content and advertising you see.
Visit our Privacy Policy to learn more. By continuing to use the site, you agree to this use of cookies and data.
  • In Romania
  • List of Countries
  • For 7 days
  • Water Temperature
  • Weather Map
  • Weather Widgets
  • user-avatar
    Login

    Hourly Weather Tarnów

    Today, 22 January, Wednesday

    Time Temperature Precipitation Wind Pressure Humidity
    00:00 -1°C° 0 mm 3 mps 756 mmHg 70%
    01:00 -1°C° 0 mm 3 mps 755 mmHg 68%
    02:00 -1°C° 0 mm 3 mps 755 mmHg 67%
    03:00 -2°C° 0 mm 4 mps 754 mmHg 67%
    04:00 -2°C° 0 mm 4 mps 753 mmHg 66%
    05:00 -2°C° 0 mm 4 mps 753 mmHg 65%
    06:00 -2°C° 0 mm 5 mps 752 mmHg 64%
    07:00 -2°C° 0 mm 5 mps 752 mmHg 63%
    08:00 -1°C° 0 mm 5 mps 751 mmHg 59%
    09:00 0°C° 0 mm 5 mps 751 mmHg 55%
    10:00 +1°C° 0 mm 5 mps 751 mmHg 50%
    11:00 +1°C° 0 mm 6 mps 750 mmHg 54%
    12:00 +1°C° 0 mm 6 mps 750 mmHg 57%
    13:00 0°C° 0 mm 7 mps 750 mmHg 60%
    14:00 0°C° 0 mm 7 mps 749 mmHg 66%
    15:00 -1°C° 0 mm 7 mps 749 mmHg 71%
    16:00 -1°C° 0 mm 7 mps 749 mmHg 76%
    17:00 -1°C° 0.1 mm 7 mps 749 mmHg 81%
    18:00 -1°C° 0.1 mm 7 mps 750 mmHg 86%
    19:00 -1°C° 0.1 mm 6 mps 751 mmHg 91%
    20:00 -1°C° 0.1 mm 6 mps 751 mmHg 91%
    21:00 0°C° 0.1 mm 5 mps 751 mmHg 92%
    22:00 -1°C° 0.1 mm 5 mps 752 mmHg 92%
    23:00 -1°C° 0 mm 4 mps 752 mmHg 93%

    Tomorrow, 23 January, Thursday

    Time Temperature Precipitation Wind Pressure Humidity
    00:00 -1°C° 0 mm 4 mps 753 mmHg 93%
    01:00 -2°C° 0 mm 4 mps 754 mmHg 94%
    02:00 -2°C° 0 mm 4 mps 754 mmHg 94%
    03:00 -2°C° 0 mm 4 mps 754 mmHg 94%
    04:00 -2°C° 0 mm 4 mps 754 mmHg 94%
    05:00 -2°C° 0 mm 4 mps 754 mmHg 94%
    06:00 -2°C° 0 mm 4 mps 755 mmHg 93%
    07:00 -2°C° 0 mm 4 mps 755 mmHg 93%
    08:00 -1°C° 0 mm 4 mps 756 mmHg 89%
    09:00 -1°C° 0 mm 4 mps 756 mmHg 85%
    10:00 -1°C° 0 mm 5 mps 756 mmHg 82%
    11:00 0°C° 0 mm 4 mps 756 mmHg 79%
    12:00 0°C° 0 mm 4 mps 756 mmHg 75%
    13:00 +2°C° 0 mm 3 mps 756 mmHg 72%
    14:00 +1°C° 0 mm 3 mps 755 mmHg 76%
    15:00 +1°C° 0 mm 2 mps 755 mmHg 81%
    16:00 +1°C° 0 mm 2 mps 754 mmHg 85%
    17:00 +1°C° 0 mm 1 mps 754 mmHg 86%
    18:00 +1°C° 0 mm 1 mps 754 mmHg 87%
    19:00 0°C° 0 mm 1 mps 754 mmHg 88%
    20:00 0°C° 0 mm 1 mps 754 mmHg 87%
    21:00 0°C° 0 mm 1 mps 754 mmHg 87%
    22:00 0°C° 0 mm 1 mps 754 mmHg 86%
    23:00 0°C° 0 mm 1 mps 753 mmHg 84%

    Day after tomorrow, 24 January, Friday

    Time Temperature Precipitation Wind Pressure Humidity
    00:00 0°C° 0 mm 1 mps 753 mmHg 82%
    01:00 -2°C° 0 mm 2 mps 753 mmHg 81%
    02:00 -2°C° 0 mm 2 mps 752 mmHg 79%
    03:00 -2°C° 0 mm 2 mps 752 mmHg 77%
    04:00 -2°C° 0 mm 2 mps 751 mmHg 76%
    05:00 -2°C° 0 mm 2 mps 751 mmHg 75%
    06:00 -2°C° 0 mm 2 mps 751 mmHg 75%
    07:00 -2°C° 0 mm 2 mps 751 mmHg 74%
    08:00 -2°C° 0 mm 2 mps 751 mmHg 70%
    09:00 -1°C° 0 mm 2 mps 751 mmHg 66%
    10:00 +1°C° 0 mm 2 mps 751 mmHg 62%
    11:00 +2°C° 0 mm 2 mps 750 mmHg 59%
    12:00 +3°C° 0 mm 2 mps 750 mmHg 57%
    13:00 +3°C° 0 mm 2 mps 749 mmHg 55%
    14:00 +2°C° 0 mm 2 mps 749 mmHg 60%
    15:00 +1°C° 0 mm 2 mps 748 mmHg 65%
    16:00 +2°C° 0 mm 1 mps 748 mmHg 71%
    17:00 -1°C° 0 mm 2 mps 748 mmHg 73%
    18:00 -1°C° 0 mm 2 mps 748 mmHg 75%
    19:00 -2°C° 0 mm 2 mps 748 mmHg 77%
    20:00 -2°C° 0 mm 2 mps 748 mmHg 77%
    21:00 -2°C° 0 mm 2 mps 748 mmHg 76%
    22:00 -2°C° 0 mm 2 mps 747 mmHg 76%
    23:00 -2°C° 0 mm 2 mps 747 mmHg 76%

    25 January, Saturday

    Time Temperature Precipitation Wind Pressure Humidity
    00:00 0°C° 0 mm 1 mps 747 mmHg 75%
    01:00 0°C° 0 mm 1 mps 747 mmHg 75%
    02:00 -2°C° 0 mm 2 mps 747 mmHg 75%
    03:00 -3°C° 0 mm 2 mps 747 mmHg 74%
    04:00 -3°C° 0 mm 2 mps 747 mmHg 74%
    05:00 -3°C° 0 mm 2 mps 747 mmHg 73%
    06:00 -3°C° 0 mm 2 mps 747 mmHg 73%
    07:00 -3°C° 0 mm 2 mps 747 mmHg 72%
    08:00 -2°C° 0 mm 2 mps 747 mmHg 69%
    09:00 -1°C° 0 mm 2 mps 747 mmHg 65%
    10:00 +1°C° 0 mm 2 mps 747 mmHg 61%
    11:00 +2°C° 0 mm 2 mps 747 mmHg 59%
    12:00 +2°C° 0 mm 2 mps 747 mmHg 56%
    13:00 +3°C° 0 mm 2 mps 747 mmHg 54%
    14:00 +2°C° 0 mm 2 mps 746 mmHg 59%
    15:00 +3°C° 0 mm 1 mps 746 mmHg 64%
    16:00 +2°C° 0 mm 1 mps 746 mmHg 69%
    17:00 +1°C° 0 mm 1 mps 746 mmHg 72%
    18:00 +1°C° 0 mm 1 mps 747 mmHg 74%
    19:00 0°C° 0 mm 1 mps 747 mmHg 76%
    20:00 0°C° 0 mm 1 mps 747 mmHg 77%
    21:00 0°C° 0 mm 1 mps 747 mmHg 77%
    22:00 0°C° 0 mm 1 mps 747 mmHg 77%
    23:00 0°C° 0 mm 1 mps 747 mmHg 77%

    26 January, Sunday

    Time Temperature Precipitation Wind Pressure Humidity
    00:00 0°C° 0 mm 1 mps 747 mmHg 77%
    01:00 0°C° 0 mm 1 mps 746 mmHg 77%
    02:00 0°C° 0 mm 1 mps 746 mmHg 77%
    03:00 0°C° 0 mm 1 mps 746 mmHg 77%
    04:00 0°C° 0 mm 1 mps 746 mmHg 78%
    05:00 0°C° 0 mm 1 mps 746 mmHg 78%
    06:00 0°C° 0 mm 1 mps 746 mmHg 79%
    07:00 0°C° 0 mm 1 mps 746 mmHg 79%
    08:00 0°C° 0 mm 1 mps 746 mmHg 76%
    09:00 +1°C° 0 mm 1 mps 746 mmHg 74%
    10:00 +2°C° 0 mm 1 mps 746 mmHg 71%
    11:00 +3°C° 0 mm 1 mps 746 mmHg 70%
    12:00 +4°C° 0 mm 1 mps 745 mmHg 68%
    13:00 +4°C° 0 mm 1 mps 745 mmHg 66%
    14:00 +4°C° 0 mm 1 mps 745 mmHg 71%
    15:00 +3°C° 0 mm 1 mps 745 mmHg 76%
    16:00 +2°C° 0 mm 1 mps 745 mmHg 81%
    17:00 +2°C° 0 mm 1 mps 745 mmHg 83%
    18:00 +2°C° 0 mm 1 mps 745 mmHg 85%
    19:00 +2°C° 0 mm 1 mps 745 mmHg 87%
    20:00 +2°C° 0 mm 1 mps 745 mmHg 87%
    21:00 +2°C° 0 mm 1 mps 745 mmHg 87%
    22:00 +1°C° 0 mm 2 mps 745 mmHg 88%
    23:00 +2°C° 0.2 mm 2 mps 744 mmHg 90%

    27 January, Monday

    Time Temperature Precipitation Wind Pressure Humidity
    00:00 +2°C° 0.2 mm 2 mps 744 mmHg 91%
    01:00 +2°C° 0.2 mm 2 mps 744 mmHg 93%
    02:00 +2°C° 0 mm 2 mps 744 mmHg 92%
    03:00 +2°C° 0 mm 2 mps 744 mmHg 92%
    04:00 +2°C° 0 mm 2 mps 744 mmHg 91%
    05:00 +2°C° 0 mm 2 mps 744 mmHg 92%
    06:00 +1°C° 0 mm 3 mps 744 mmHg 92%
    07:00 +1°C° 0 mm 3 mps 745 mmHg 92%
    08:00 +1°C° 0.3 mm 3 mps 745 mmHg 92%
    09:00 +2°C° 0.3 mm 3 mps 745 mmHg 93%
    10:00 +2°C° 0.3 mm 3 mps 745 mmHg 93%
    11:00 +3°C° 0 mm 3 mps 745 mmHg 91%
    12:00 +3°C° 0 mm 4 mps 745 mmHg 90%
    13:00 +4°C° 0 mm 4 mps 745 mmHg 88%
    14:00 +4°C° 0.1 mm 3 mps 745 mmHg 88%
    15:00 +3°C° 0.1 mm 3 mps 746 mmHg 88%
    16:00 +3°C° 0.1 mm 3 mps 746 mmHg 88%
    17:00 +3°C° 0 mm 3 mps 746 mmHg 89%
    18:00 +3°C° 0 mm 3 mps 746 mmHg 89%
    19:00 +3°C° 0 mm 3 mps 746 mmHg 90%
    20:00 +3°C° 0 mm 3 mps 747 mmHg 90%
    21:00 +3°C° 0 mm 3 mps 747 mmHg 90%
    22:00 +2°C° 0 mm 3 mps 747 mmHg 90%
    23:00 +2°C° 0 mm 3 mps 747 mmHg 89%
    Show more